| time (UTC) | temp F | wind direction | speed MPH | gust MPH | rain 1hr in | rain 24hr in | rain mn in | humidity % | barometer mb |
| 20260507064504 | 71 | 225 | 1.0 | 4.0 | 0.00 | 0.00 | 0.00 | 50 | 1018.4 |
| 20260507064004 | 72 | 0 | 0.0 | 4.0 | 0.00 | 0.00 | 0.00 | 50 | 1018.6 |
| 20260507063503 | 72 | 225 | 1.0 | 4.0 | 0.00 | 0.00 | 0.00 | 51 | 1018.5 |
| 20260507063003 | 72 | 225 | 1.0 | 3.0 | 0.00 | 0.00 | 0.00 | 52 | 1018.6 |
| 20260507062504 | 71 | 0 | 0.0 | 3.0 | 0.00 | 0.00 | 0.00 | 52 | 1018.7 |
| 20260507062003 | 71 | 0 | 0.0 | 4.0 | 0.00 | 0.00 | 0.00 | 52 | 1018.5 |
| 20260507061503 | 71 | 225 | 2.0 | 4.0 | 0.00 | 0.00 | 0.00 | 51 | 1018.4 |
| 20260507061003 | 71 | 225 | 2.0 | 4.0 | 0.00 | 0.00 | 0.00 | 50 | 1018.4 |
| 20260507060504 | 72 | 225 | 1.0 | 2.0 | 0.00 | 0.00 | 0.00 | 49 | 1018.2 |
| 20260507060004 | 72 | 225 | 1.0 | 3.0 | 0.00 | 0.00 | 0.00 | 49 | 1018.2 |
| 20260507055503 | 71 | 225 | 1.0 | 3.0 | 0.00 | 0.00 | 0.00 | 49 | 1018.1 |
| 20260507055004 | 70 | 0 | 0.0 | 4.0 | 0.00 | 0.00 | 0.00 | 49 | 1018.2 |
| 20260507054504 | 70 | 225 | 2.0 | 4.0 | 0.00 | 0.00 | 0.00 | 48 | 1018.0 |
| 20260507054003 | 70 | 225 | 2.0 | 3.0 | 0.00 | 0.00 | 0.00 | 49 | 1018.0 |
| 20260507053503 | 69 | 225 | 1.0 | 3.0 | 0.00 | 0.00 | 0.00 | 51 | 1018.0 |
| 20260507053003 | 69 | 0 | 0.0 | 3.0 | 0.00 | 0.00 | 0.00 | 51 | 1018.0 |
| 20260507052504 | 69 | 0 | 0.0 | 2.0 | 0.00 | 0.00 | 0.00 | 51 | 1018.0 |
| 20260507052003 | 68 | 0 | 0.0 | 2.0 | 0.00 | 0.00 | 0.00 | 52 | 1017.9 |
| 20260507051503 | 68 | 0 | 0.0 | 2.0 | 0.00 | 0.00 | 0.00 | 52 | 1017.8 |
| 20260507051004 | 68 | 0 | 0.0 | 2.0 | 0.00 | 0.00 | 0.00 | 53 | 1017.7 |
| 20260507050504 | 67 | 225 | 1.0 | 3.0 | 0.00 | 0.00 | 0.00 | 54 | 1018.0 |
| 20260507050003 | 67 | 0 | 0.0 | 3.0 | 0.00 | 0.00 | 0.00 | 55 | 1017.9 |
| 20260507045503 | 66 | 225 | 1.0 | 3.0 | 0.00 | 0.00 | 0.00 | 56 | 1017.9 |
| 20260507045004 | 66 | 0 | 0.0 | 3.0 | 0.00 | 0.00 | 0.00 | 57 | 1017.9 |
| 20260507044503 | 65 | 0 | 0.0 | 3.0 | 0.00 | 0.00 | 0.00 | 58 | 1017.9 |
| 20260507044003 | 65 | 0 | 0.0 | 3.0 | 0.00 | 0.00 | 0.00 | 59 | 1017.9 |
| 20260507043503 | 64 | 0 | 0.0 | 2.0 | 0.00 | 0.00 | 0.00 | 60 | 1017.9 |
| 20260507043004 | 63 | 0 | 0.0 | 3.0 | 0.00 | 0.00 | 0.00 | 62 | 1018.0 |
| 20260507042503 | 62 | 0 | 0.0 | 3.0 | 0.00 | 0.00 | 0.00 | 62 | 1017.9 |
| 20260507042003 | 62 | 0 | 0.0 | 2.0 | 0.00 | 0.00 | 0.00 | 62 | 1017.8 |
| 20260507041503 | 61 | 0 | 0.0 | 2.0 | 0.00 | 0.00 | 0.00 | 62 | 1017.8 |
| 20260507041003 | 61 | 0 | 0.0 | 2.0 | 0.00 | 0.00 | 0.00 | 63 | 1017.8 |
| 20260507040504 | 61 | 0 | 0.0 | 1.0 | 0.00 | 0.00 | 0.00 | 63 | 1017.7 |
| 20260507040004 | 61 | 0 | 0.0 | 1.0 | 0.00 | 0.00 | 0.00 | 64 | 1017.7 |
| 20260507035503 | 61 | 0 | 0.0 | 0.0 | 0.00 | 0.00 | 0.00 | 64 | 1017.7 |
| 20260507035003 | 61 | 0 | 0.0 | 1.0 | 0.00 | 0.00 | 0.00 | 64 | 1017.6 |
| 20260507034503 | 61 | 0 | 0.0 | 2.0 | 0.00 | 0.00 | 0.00 | 64 | 1017.6 |
| 20260507034004 | 61 | 0 | 0.0 | 2.0 | 0.00 | 0.00 | 0.00 | 64 | 1017.4 |
| 20260507033503 | 60 | 0 | 0.0 | 4.0 | 0.00 | 0.00 | 0.00 | 64 | 1017.4 |
| 20260507033003 | 60 | 0 | 0.0 | 4.0 | 0.00 | 0.00 | 0.00 | 64 | 1017.3 |
| 20260507032503 | 60 | 222 | 2.0 | 4.0 | 0.00 | 0.00 | 0.00 | 64 | 1017.2 |
| 20260507032004 | 60 | 0 | 0.0 | 4.0 | 0.00 | 0.00 | 0.00 | 64 | 1017.3 |
| 20260507031504 | 61 | 225 | 1.0 | 4.0 | 0.00 | 0.00 | 0.00 | 64 | 1017.2 |
| 20260507031003 | 61 | 0 | 0.0 | 4.0 | 0.00 | 0.00 | 0.00 | 64 | 1017.3 |
| 20260507030503 | 61 | 0 | 0.0 | 2.0 | 0.00 | 0.00 | 0.00 | 64 | 1017.3 |
| 20260507030004 | 61 | 0 | 0.0 | 2.0 | 0.00 | 0.00 | 0.00 | 64 | 1017.2 |
| 20260507025503 | 61 | 0 | 0.0 | 2.0 | 0.00 | 0.00 | 0.00 | 64 | 1017.2 |
| 20260507025003 | 61 | 0 | 0.0 | 2.0 | 0.00 | 0.00 | 0.00 | 65 | 1017.3 |
| 20260507024503 | 61 | 0 | 0.0 | 2.0 | 0.00 | 0.00 | 0.00 | 65 | 1017.2 |
| 20260507024004 | 61 | 0 | 0.0 | 3.0 | 0.00 | 0.00 | 0.00 | 65 | 1017.2 |
| 20260507023503 | 61 | 0 | 0.0 | 3.0 | 0.00 | 0.00 | 0.00 | 65 | 1017.1 |
| 20260507023003 | 61 | 0 | 0.0 | 5.0 | 0.00 | 0.00 | 0.00 | 65 | 1017.0 |
| 20260507022504 | 61 | 0 | 0.0 | 5.0 | 0.00 | 0.00 | 0.00 | 65 | 1017.0 |
| 20260507022003 | 61 | 34 | 2.0 | 5.0 | 0.00 | 0.00 | 0.00 | 65 | 1016.9 |
| 20260507021503 | 61 | 213 | 2.0 | 4.0 | 0.00 | 0.00 | 0.00 | 65 | 1016.9 |
| 20260507021003 | 61 | 0 | 0.0 | 3.0 | 0.00 | 0.00 | 0.00 | 64 | 1017.0 |
| 20260507020504 | 61 | 0 | 0.0 | 3.0 | 0.00 | 0.00 | 0.00 | 64 | 1017.1 |
| 20260507020004 | 61 | 0 | 0.0 | 4.0 | 0.00 | 0.00 | 0.00 | 64 | 1016.9 |
| 20260507015503 | 61 | 0 | 0.0 | 4.0 | 0.00 | 0.00 | 0.00 | 64 | 1016.8 |
| 20260507015003 | 61 | 225 | 1.0 | 2.0 | 0.00 | 0.00 | 0.00 | 65 | 1016.9 |
| 20260507014504 | 61 | 0 | 0.0 | 4.0 | 0.00 | 0.00 | 0.00 | 65 | 1016.9 |
| 20260507014003 | 61 | 0 | 0.0 | 4.0 | 0.00 | 0.00 | 0.00 | 65 | 1016.9 |
| 20260507013503 | 62 | 28 | 1.0 | 4.0 | 0.00 | 0.00 | 0.00 | 65 | 1016.8 |
| 20260507013003 | 62 | 26 | 2.0 | 4.0 | 0.00 | 0.00 | 0.00 | 65 | 1016.8 |
| 20260507012504 | 62 | 0 | 0.0 | 4.0 | 0.00 | 0.00 | 0.00 | 65 | 1016.8 |
| 20260507012003 | 62 | 234 | 1.0 | 3.0 | 0.00 | 0.00 | 0.00 | 64 | 1016.9 |
| 20260507011503 | 62 | 0 | 0.0 | 4.0 | 0.00 | 0.00 | 0.00 | 64 | 1016.8 |
| 20260507011004 | 62 | 0 | 0.0 | 4.0 | 0.00 | 0.00 | 0.00 | 64 | 1016.8 |
| 20260507010503 | 62 | 0 | 0.0 | 3.0 | 0.00 | 0.00 | 0.00 | 64 | 1016.7 |
| 20260507010003 | 62 | 0 | 0.0 | 4.0 | 0.00 | 0.00 | 0.00 | 64 | 1016.7 |
| 20260507005504 | 62 | 210 | 1.0 | 4.0 | 0.00 | 0.00 | 0.00 | 63 | 1016.7 |
| 20260507005003 | 62 | 222 | 2.0 | 4.0 | 0.00 | 0.00 | 0.00 | 64 | 1016.6 |
| 20260507004503 | 62 | 225 | 1.0 | 3.0 | 0.00 | 0.00 | 0.00 | 64 | 1016.6 |
| 20260507004003 | 62 | 225 | 1.0 | 2.0 | 0.00 | 0.00 | 0.00 | 64 | 1016.5 |
| 20260507003504 | 62 | 225 | 1.0 | 2.0 | 0.00 | 0.00 | 0.00 | 64 | 1016.4 |
| 20260507003003 | 62 | 225 | 1.0 | 2.0 | 0.00 | 0.00 | 0.00 | 65 | 1016.4 |
| 20260507002503 | 62 | 0 | 0.0 | 2.0 | 0.00 | 0.00 | 0.00 | 65 | 1016.5 |
| 20260507002004 | 62 | 0 | 0.0 | 2.0 | 0.00 | 0.00 | 0.00 | 64 | 1016.7 |
| 20260507001504 | 62 | 0 | 0.0 | 3.0 | 0.00 | 0.00 | 0.00 | 64 | 1016.5 |
| 20260507001003 | 62 | 6 | 1.0 | 3.0 | 0.00 | 0.00 | 0.00 | 64 | 1016.6 |
| 20260507000503 | 62 | 2 | 1.0 | 3.0 | 0.00 | 0.00 | 0.00 | 64 | 1016.5 |
| 20260507000004 | 62 | 242 | 1.0 | 4.0 | 0.00 | 0.00 | 0.00 | 64 | 1016.7 |
| 20260506235503 | 62 | 224 | 1.0 | 4.0 | 0.00 | 0.00 | 0.00 | 64 | 1016.7 |
| 20260506235003 | 63 | 225 | 2.0 | 4.0 | 0.00 | 0.00 | 0.00 | 64 | 1016.8 |
| 20260506234504 | 63 | 0 | 0.0 | 2.0 | 0.00 | 0.00 | 0.00 | 64 | 1016.9 |
| 20260506234004 | 63 | 0 | 0.0 | 1.0 | 0.00 | 0.00 | 0.00 | 64 | 1017.0 |
| 20260506233503 | 63 | 0 | 0.0 | 2.0 | 0.00 | 0.00 | 0.00 | 64 | 1017.0 |
| 20260506233004 | 63 | 0 | 0.0 | 2.0 | 0.00 | 0.00 | 0.00 | 64 | 1016.9 |
| 20260506232503 | 63 | 0 | 0.0 | 3.0 | 0.00 | 0.00 | 0.00 | 64 | 1016.9 |
| 20260506232003 | 63 | 0 | 0.0 | 3.0 | 0.00 | 0.00 | 0.00 | 65 | 1017.1 |
| 20260506231504 | 63 | 0 | 0.0 | 2.0 | 0.00 | 0.00 | 0.00 | 65 | 1016.9 |
| 20260506231004 | 63 | 0 | 0.0 | 2.0 | 0.00 | 0.00 | 0.00 | 65 | 1016.8 |
| 20260506230503 | 63 | 0 | 0.0 | 2.0 | 0.00 | 0.00 | 0.00 | 65 | 1016.8 |
| 20260506230003 | 63 | 0 | 0.0 | 2.0 | 0.00 | 0.00 | 0.00 | 65 | 1016.7 |
| 20260506225504 | 63 | 225 | 1.0 | 2.0 | 0.00 | 0.00 | 0.00 | 66 | 1016.8 |
| 20260506225003 | 63 | 0 | 0.0 | 2.0 | 0.00 | 0.00 | 0.00 | 66 | 1016.9 |
| 20260506224503 | 63 | 0 | 0.0 | 2.0 | 0.00 | 0.00 | 0.00 | 66 | 1016.9 |
| 20260506224003 | 63 | 0 | 0.0 | 2.0 | 0.00 | 0.00 | 0.00 | 66 | 1016.8 |
| 20260506223504 | 63 | 225 | 1.0 | 2.0 | 0.00 | 0.00 | 0.00 | 66 | 1016.9 |
| 20260506223003 | 63 | 0 | 0.0 | 2.0 | 0.00 | 0.00 | 0.00 | 66 | 1016.9 |
| 20260506222503 | 64 | 225 | 1.0 | 2.0 | 0.00 | 0.00 | 0.00 | 66 | 1016.9 |
| 20260506222003 | 64 | 0 | 0.0 | 3.0 | 0.00 | 0.00 | 0.00 | 66 | 1016.8 |
| 20260506221504 | 64 | 0 | 0.0 | 3.0 | 0.00 | 0.00 | 0.00 | 66 | 1016.9 |
| 20260506221004 | 64 | 0 | 0.0 | 3.0 | 0.00 | 0.00 | 0.00 | 66 | 1016.9 |
| 20260506220504 | 64 | 0 | 0.0 | 2.0 | 0.00 | 0.00 | 0.00 | 66 | 1016.9 |
| 20260506220004 | 64 | 0 | 0.0 | 2.0 | 0.00 | 0.00 | 0.00 | 66 | 1016.9 |
| 20260506215503 | 64 | 0 | 0.0 | 3.0 | 0.00 | 0.00 | 0.00 | 66 | 1017.0 |
| 20260506215003 | 64 | 225 | 2.0 | 3.0 | 0.00 | 0.00 | 0.00 | 66 | 1017.0 |
| 20260506214503 | 64 | 0 | 0.0 | 4.0 | 0.00 | 0.00 | 0.00 | 66 | 1017.0 |
| 20260506214004 | 65 | 0 | 0.0 | 4.0 | 0.00 | 0.00 | 0.00 | 66 | 1017.1 |
| 20260506213503 | 65 | 0 | 0.0 | 4.0 | 0.00 | 0.00 | 0.00 | 66 | 1017.1 |
| 20260506213003 | 65 | 237 | 1.0 | 3.0 | 0.00 | 0.00 | 0.00 | 66 | 1017.1 |
| 20260506212504 | 65 | 0 | 0.0 | 2.0 | 0.00 | 0.00 | 0.00 | 66 | 1017.1 |
| 20260506212003 | 65 | 0 | 0.0 | 2.0 | 0.00 | 0.00 | 0.00 | 66 | 1017.1 |
| 20260506211503 | 65 | 0 | 0.0 | 2.0 | 0.00 | 0.00 | 0.00 | 66 | 1017.1 |
| 20260506211003 | 65 | 0 | 0.0 | 2.0 | 0.00 | 0.00 | 0.00 | 66 | 1017.1 |
| 20260506210504 | 65 | 0 | 0.0 | 2.0 | 0.00 | 0.00 | 0.00 | 66 | 1017.1 |
| 20260506210004 | 65 | 0 | 0.0 | 3.0 | 0.00 | 0.00 | 0.00 | 66 | 1017.1 |
| 20260506205503 | 65 | 0 | 0.0 | 4.0 | 0.00 | 0.00 | 0.00 | 66 | 1017.2 |
| 20260506205004 | 65 | 241 | 2.0 | 4.0 | 0.00 | 0.00 | 0.00 | 66 | 1017.3 |
| 20260506204503 | 66 | 238 | 2.0 | 4.0 | 0.00 | 0.00 | 0.00 | 66 | 1017.2 |
| 20260506204003 | 66 | 242 | 2.0 | 4.0 | 0.00 | 0.00 | 0.00 | 66 | 1017.2 |
| 20260506203503 | 66 | 0 | 0.0 | 3.0 | 0.00 | 0.00 | 0.00 | 66 | 1017.1 |
| 20260506203004 | 66 | 0 | 0.0 | 2.0 | 0.00 | 0.00 | 0.00 | 66 | 1017.1 |
| 20260506202503 | 66 | 0 | 0.0 | 2.0 | 0.00 | 0.00 | 0.00 | 66 | 1017.0 |
| 20260506202003 | 66 | 0 | 0.0 | 2.0 | 0.00 | 0.00 | 0.00 | 66 | 1017.0 |
| 20260506201503 | 66 | 0 | 0.0 | 2.0 | 0.00 | 0.00 | 0.00 | 66 | 1016.9 |
| 20260506201004 | 66 | 0 | 0.0 | 2.0 | 0.00 | 0.00 | 0.00 | 66 | 1016.9 |
| 20260506200503 | 66 | 0 | 0.0 | 2.0 | 0.00 | 0.00 | 0.00 | 66 | 1016.8 |
| 20260506200003 | 66 | 0 | 0.0 | 3.0 | 0.00 | 0.00 | 0.00 | 66 | 1016.8 |
| 20260506195503 | 66 | 225 | 1.0 | 3.0 | 0.00 | 0.00 | 0.00 | 66 | 1016.9 |
| 20260506195004 | 66 | 225 | 1.0 | 2.0 | 0.00 | 0.00 | 0.00 | 66 | 1016.8 |
| 20260506194503 | 66 | 225 | 1.0 | 3.0 | 0.00 | 0.00 | 0.00 | 66 | 1016.8 |
| 20260506194003 | 66 | 0 | 0.0 | 3.0 | 0.00 | 0.00 | 0.00 | 66 | 1016.7 |
| 20260506193504 | 66 | 225 | 1.0 | 3.0 | 0.00 | 0.00 | 0.00 | 66 | 1016.6 |
| 20260506193004 | 66 | 225 | 1.0 | 2.0 | 0.00 | 0.00 | 0.00 | 65 | 1016.6 |
| 20260506192503 | 66 | 0 | 0.0 | 2.0 | 0.00 | 0.00 | 0.00 | 65 | 1016.6 |
| 20260506192003 | 66 | 0 | 0.0 | 3.0 | 0.00 | 0.00 | 0.00 | 65 | 1016.6 |
| 20260506191504 | 67 | 225 | 2.0 | 3.0 | 0.00 | 0.00 | 0.00 | 65 | 1016.6 |
| 20260506191003 | 67 | 0 | 0.0 | 2.0 | 0.00 | 0.00 | 0.00 | 65 | 1016.5 |
| 20260506190503 | 67 | 225 | 1.0 | 2.0 | 0.00 | 0.00 | 0.00 | 65 | 1016.5 |
| 20260506190003 | 66 | 0 | 0.0 | 2.0 | 0.00 | 0.00 | 0.00 | 65 | 1016.5 |
| 20260506185503 | 66 | 0 | 0.0 | 1.0 | 0.00 | 0.00 | 0.00 | 65 | 1016.6 |
| 20260506185004 | 66 | 0 | 0.0 | 1.0 | 0.00 | 0.00 | 0.00 | 65 | 1016.4 |
| 20260506184503 | 66 | 0 | 0.0 | 2.0 | 0.00 | 0.00 | 0.00 | 64 | 1016.2 |
| 20260506184003 | 66 | 0 | 0.0 | 2.0 | 0.00 | 0.00 | 0.00 | 64 | 1016.3 |
| 20260506183504 | 67 | 0 | 0.0 | 2.0 | 0.00 | 0.00 | 0.00 | 64 | 1016.2 |
| 20260506183004 | 67 | 0 | 0.0 | 2.0 | 0.00 | 0.00 | 0.00 | 64 | 1016.2 |
| 20260506182503 | 67 | 0 | 0.0 | 2.0 | 0.00 | 0.00 | 0.00 | 64 | 1016.2 |
| 20260506182003 | 67 | 0 | 0.0 | 3.0 | 0.00 | 0.00 | 0.00 | 63 | 1016.2 |
| 20260506181504 | 67 | 0 | 0.0 | 3.0 | 0.00 | 0.00 | 0.00 | 63 | 1016.1 |
| 20260506181003 | 67 | 225 | 2.0 | 3.0 | 0.00 | 0.00 | 0.00 | 63 | 1016.2 |
| 20260506180503 | 67 | 225 | 2.0 | 3.0 | 0.00 | 0.00 | 0.00 | 63 | 1016.1 |
| 20260506180003 | 67 | 225 | 1.0 | 4.0 | 0.00 | 0.00 | 0.00 | 62 | 1016.0 |
| 20260506175504 | 67 | 229 | 1.0 | 4.0 | 0.00 | 0.00 | 0.00 | 62 | 1015.9 |
| 20260506175003 | 67 | 229 | 2.0 | 4.0 | 0.00 | 0.00 | 0.00 | 62 | 1015.9 |
| 20260506174503 | 67 | 230 | 2.0 | 4.0 | 0.00 | 0.00 | 0.00 | 62 | 1015.8 |
| 20260506174004 | 67 | 0 | 0.0 | 5.0 | 0.00 | 0.00 | 0.00 | 62 | 1015.6 |
| 20260506173503 | 67 | 268 | 1.0 | 5.0 | 0.00 | 0.00 | 0.00 | 62 | 1015.6 |
| 20260506173003 | 68 | 250 | 3.0 | 5.0 | 0.00 | 0.00 | 0.00 | 62 | 1015.7 |
| 20260506172503 | 68 | 244 | 2.0 | 4.0 | 0.00 | 0.00 | 0.00 | 60 | 1015.7 |
| 20260506172004 | 68 | 244 | 2.0 | 5.0 | 0.00 | 0.00 | 0.00 | 59 | 1015.6 |
| 20260506171503 | 68 | 242 | 1.0 | 5.0 | 0.00 | 0.00 | 0.00 | 59 | 1015.4 |
| 20260506171003 | 69 | 0 | 0.0 | 4.0 | 0.00 | 0.00 | 0.00 | 58 | 1015.5 |
| 20260506170503 | 69 | 297 | 2.0 | 6.0 | 0.00 | 0.00 | 0.00 | 57 | 1015.4 |
| 20260506170004 | 69 | 271 | 2.0 | 6.0 | 0.00 | 0.00 | 0.00 | 57 | 1015.5 |
| 20260506165503 | 69 | 285 | 1.0 | 6.0 | 0.00 | 0.00 | 0.00 | 56 | 1015.5 |
| 20260506165003 | 70 | 293 | 3.0 | 6.0 | 0.00 | 0.00 | 0.00 | 55 | 1015.5 |
| 20260506164503 | 70 | 308 | 1.0 | 6.0 | 0.00 | 0.00 | 0.00 | 54 | 1015.4 |
| 20260506164003 | 70 | 275 | 2.0 | 6.0 | 0.00 | 0.00 | 0.00 | 54 | 1015.4 |
| 20260506163504 | 70 | 253 | 2.0 | 8.0 | 0.00 | 0.00 | 0.00 | 54 | 1015.5 |
| 20260506163003 | 71 | 243 | 3.0 | 8.0 | 0.00 | 0.00 | 0.00 | 53 | 1015.5 |
| 20260506162503 | 71 | 242 | 4.0 | 7.0 | 0.00 | 0.00 | 0.00 | 53 | 1015.4 |
| 20260506162003 | 71 | 246 | 2.0 | 7.0 | 0.00 | 0.00 | 0.00 | 51 | 1015.6 |
| 20260506161504 | 72 | 262 | 4.0 | 7.0 | 0.00 | 0.00 | 0.00 | 49 | 1015.4 |
| 20260506161003 | 72 | 0 | 0.0 | 7.0 | 0.00 | 0.00 | 0.00 | 49 | 1015.5 |
| 20260506160503 | 72 | 266 | 2.0 | 7.0 | 0.00 | 0.00 | 0.00 | 48 | 1015.5 |
| 20260506160004 | 72 | 290 | 2.0 | 6.0 | 0.00 | 0.00 | 0.00 | 47 | 1015.5 |
| 20260506155504 | 73 | 256 | 2.0 | 6.0 | 0.00 | 0.00 | 0.00 | 45 | 1015.4 |
| 20260506155004 | 74 | 221 | 1.0 | 5.0 | 0.00 | 0.00 | 0.00 | 43 | 1015.5 |
| 20260506154503 | 74 | 185 | 1.0 | 4.0 | 0.00 | 0.00 | 0.00 | 42 | 1015.6 |
| 20260506154003 | 74 | 0 | 0.0 | 4.0 | 0.00 | 0.00 | 0.00 | 40 | 1015.5 |
| 20260506153504 | 75 | 287 | 1.0 | 5.0 | 0.00 | 0.00 | 0.00 | 39 | 1015.7 |
| 20260506153003 | 76 | 246 | 2.0 | 5.0 | 0.00 | 0.00 | 0.00 | 38 | 1015.7 |
| 20260506152503 | 77 | 234 | 2.0 | 5.0 | 0.00 | 0.00 | 0.00 | 36 | 1015.6 |
| 20260506152003 | 77 | 252 | 1.0 | 7.0 | 0.00 | 0.00 | 0.00 | 34 | 1015.7 |
| 20260506151504 | 78 | 260 | 2.0 | 7.0 | 0.00 | 0.00 | 0.00 | 34 | 1015.6 |
| 20260506151003 | 79 | 265 | 4.0 | 7.0 | 0.00 | 0.00 | 0.00 | 33 | 1015.6 |
| 20260506150503 | 80 | 260 | 2.0 | 7.0 | 0.00 | 0.00 | 0.00 | 31 | 1015.6 |
| 20260506150004 | 80 | 246 | 2.0 | 7.0 | 0.00 | 0.00 | 0.00 | 31 | 1015.7 |
| 20260506145503 | 81 | 141 | 4.0 | 7.0 | 0.00 | 0.00 | 0.00 | 28 | 1015.6 |
| 20260506145003 | 80 | 161 | 1.0 | 5.0 | 0.00 | 0.00 | 0.00 | 28 | 1015.7 |
| 20260506144504 | 80 | 242 | 1.0 | 8.0 | 0.00 | 0.00 | 0.00 | 29 | 1015.7 |
| 20260506144003 | 79 | 280 | 3.0 | 8.0 | 0.00 | 0.00 | 0.00 | 30 | 1015.8 |
| 20260506143503 | 80 | 325 | 2.0 | 10.0 | 0.00 | 0.00 | 0.00 | 30 | 1015.8 |
| 20260506143003 | 79 | 287 | 2.0 | 10.0 | 0.00 | 0.00 | 0.00 | 31 | 1015.7 |
| 20260506142504 | 80 | 263 | 4.0 | 8.0 | 0.00 | 0.00 | 0.00 | 29 | 1015.7 |
| 20260506142004 | 80 | 257 | 2.0 | 9.0 | 0.00 | 0.00 | 0.00 | 29 | 1015.8 |
| 20260506141503 | 81 | 271 | 4.0 | 10.0 | 0.00 | 0.00 | 0.00 | 28 | 1015.7 |
| 20260506141003 | 82 | 278 | 2.0 | 10.0 | 0.00 | 0.00 | 0.00 | 27 | 1015.7 |
| 20260506140504 | 82 | 270 | 4.0 | 8.0 | 0.00 | 0.00 | 0.00 | 26 | 1015.8 |
| 20260506140004 | 82 | 257 | 2.0 | 10.0 | 0.00 | 0.00 | 0.00 | 27 | 1015.7 |
| 20260506135503 | 82 | 237 | 2.0 | 10.0 | 0.00 | 0.00 | 0.00 | 28 | 1015.9 |
| 20260506135004 | 82 | 248 | 3.0 | 8.0 | 0.00 | 0.00 | 0.00 | 26 | 1015.9 |
| 20260506134504 | 83 | 245 | 2.0 | 8.0 | 0.00 | 0.00 | 0.00 | 27 | 1015.9 |
| 20260506134003 | 83 | 238 | 1.0 | 8.0 | 0.00 | 0.00 | 0.00 | 27 | 1015.7 |
| 20260506133504 | 82 | 266 | 2.0 | 8.0 | 0.00 | 0.00 | 0.00 | 28 | 1015.9 |
| 20260506133004 | 83 | 257 | 4.0 | 8.0 | 0.00 | 0.00 | 0.00 | 27 | 1015.8 |
| 20260506132503 | 83 | 293 | 3.0 | 7.0 | 0.00 | 0.00 | 0.00 | 25 | 1015.9 |
| 20260506132003 | 83 | 284 | 3.0 | 8.0 | 0.00 | 0.00 | 0.00 | 25 | 1016.1 |
| 20260506131504 | 82 | 265 | 2.0 | 9.0 | 0.00 | 0.00 | 0.00 | 26 | 1016.1 |
| 20260506131003 | 83 | 280 | 4.0 | 9.0 | 0.00 | 0.00 | 0.00 | 24 | 1016.1 |
| 20260506130503 | 84 | 286 | 4.0 | 8.0 | 0.00 | 0.00 | 0.00 | 24 | 1016.1 |
| 20260506130003 | 83 | 271 | 2.0 | 8.0 | 0.00 | 0.00 | 0.00 | 23 | 1016.1 |
| 20260506125504 | 83 | 267 | 4.0 | 8.0 | 0.00 | 0.00 | 0.00 | 25 | 1016.2 |
| 20260506125003 | 83 | 216 | 1.0 | 8.0 | 0.00 | 0.00 | 0.00 | 22 | 1016.1 |
| 20260506124503 | 83 | 195 | 3.0 | 8.0 | 0.00 | 0.00 | 0.00 | 20 | 1016.2 |
| 20260506124004 | 83 | 241 | 3.0 | 8.0 | 0.00 | 0.00 | 0.00 | 22 | 1016.2 |
| 20260506123504 | 84 | 252 | 4.0 | 8.0 | 0.00 | 0.00 | 0.00 | 21 | 1016.3 |
| 20260506123003 | 84 | 263 | 2.0 | 8.0 | 0.00 | 0.00 | 0.00 | 20 | 1016.3 |
| 20260506122503 | 85 | 285 | 2.0 | 7.0 | 0.00 | 0.00 | 0.00 | 19 | 1016.4 |
| 20260506122004 | 84 | 197 | 2.0 | 7.0 | 0.00 | 0.00 | 0.00 | 19 | 1016.4 |
| 20260506121503 | 83 | 172 | 2.0 | 8.0 | 0.00 | 0.00 | 0.00 | 20 | 1016.5 |
| 20260506121003 | 83 | 299 | 4.0 | 8.0 | 0.00 | 0.00 | 0.00 | 20 | 1016.6 |
| 20260506120503 | 83 | 0 | 0.0 | 8.0 | 0.00 | 0.00 | 0.00 | 23 | 1016.7 |
| 20260506120004 | 83 | 211 | 4.0 | 8.0 | 0.00 | 0.00 | 0.00 | 22 | 1016.6 |
| 20260506115503 | 82 | 135 | 2.0 | 7.0 | 0.00 | 0.00 | 0.00 | 21 | 1016.7 |
| 20260506115003 | 82 | 142 | 4.0 | 7.0 | 0.00 | 0.00 | 0.00 | 21 | 1016.7 |
| 20260506114504 | 81 | 142 | 3.0 | 8.0 | 0.00 | 0.00 | 0.00 | 22 | 1016.7 |
| 20260506114003 | 81 | 140 | 3.0 | 9.0 | 0.00 | 0.00 | 0.00 | 22 | 1016.7 |
| 20260506113503 | 82 | 145 | 2.0 | 9.0 | 0.00 | 0.00 | 0.00 | 21 | 1016.8 |
| 20260506113003 | 82 | 146 | 4.0 | 8.0 | 0.00 | 0.00 | 0.00 | 20 | 1016.9 |
| 20260506112504 | 82 | 156 | 2.0 | 9.0 | 0.00 | 0.00 | 0.00 | 20 | 1016.8 |
| 20260506112003 | 82 | 146 | 2.0 | 9.0 | 0.00 | 0.00 | 0.00 | 21 | 1016.9 |
| 20260506111503 | 81 | 126 | 2.0 | 8.0 | 0.00 | 0.00 | 0.00 | 21 | 1016.8 |
| 20260506111003 | 82 | 121 | 2.0 | 8.0 | 0.00 | 0.00 | 0.00 | 20 | 1017.0 |
| 20260506110504 | 82 | 133 | 4.0 | 8.0 | 0.00 | 0.00 | 0.00 | 18 | 1017.0 |
| 20260506110003 | 82 | 201 | 4.0 | 7.0 | 0.00 | 0.00 | 0.00 | 15 | 1017.0 |
| 20260506105503 | 82 | 267 | 1.0 | 7.0 | 0.00 | 0.00 | 0.00 | 14 | 1016.9 |
| 20260506105004 | 82 | 244 | 2.0 | 7.0 | 0.00 | 0.00 | 0.00 | 13 | 1016.8 |
| 20260506104504 | 82 | 143 | 1.0 | 7.0 | 0.00 | 0.00 | 0.00 | 14 | 1016.9 |
| 20260506104003 | 81 | 151 | 2.0 | 8.0 | 0.00 | 0.00 | 0.00 | 14 | 1016.9 |
| 20260506103503 | 81 | 152 | 2.0 | 8.0 | 0.00 | 0.00 | 0.00 | 17 | 1017.0 |
| 20260506103004 | 81 | 168 | 4.0 | 8.0 | 0.00 | 0.00 | 0.00 | 15 | 1017.1 |
| 20260506102503 | 82 | 224 | 2.0 | 8.0 | 0.00 | 0.00 | 0.00 | 17 | 1017.1 |
| 20260506102004 | 82 | 193 | 2.0 | 7.0 | 0.00 | 0.00 | 0.00 | 19 | 1017.1 |
| 20260506101503 | 82 | 146 | 3.0 | 8.0 | 0.00 | 0.00 | 0.00 | 20 | 1017.1 |
| 20260506101003 | 82 | 157 | 2.0 | 8.0 | 0.00 | 0.00 | 0.00 | 20 | 1017.2 |
| 20260506100504 | 82 | 184 | 4.0 | 8.0 | 0.00 | 0.00 | 0.00 | 18 | 1017.2 |
| 20260506100004 | 82 | 154 | 2.0 | 8.0 | 0.00 | 0.00 | 0.00 | 17 | 1017.4 |
| 20260506095503 | 82 | 161 | 3.0 | 8.0 | 0.00 | 0.00 | 0.00 | 15 | 1017.4 |
| 20260506095004 | 83 | 171 | 2.0 | 5.0 | 0.00 | 0.00 | 0.00 | 14 | 1017.4 |
| 20260506094503 | 83 | 128 | 1.0 | 4.0 | 0.00 | 0.00 | 0.00 | 13 | 1017.3 |
| 20260506094003 | 82 | 132 | 2.0 | 5.0 | 0.00 | 0.00 | 0.00 | 12 | 1017.4 |
| 20260506093504 | 82 | 0 | 0.0 | 5.0 | 0.00 | 0.00 | 0.00 | 12 | 1017.3 |
| 20260506093004 | 82 | 135 | 2.0 | 5.0 | 0.00 | 0.00 | 0.00 | 12 | 1017.4 |
| 20260506092503 | 82 | 146 | 2.0 | 4.0 | 0.00 | 0.00 | 0.00 | 14 | 1017.4 |
| 20260506092003 | 81 | 169 | 2.0 | 4.0 | 0.00 | 0.00 | 0.00 | 15 | 1017.5 |
| 20260506091504 | 81 | 206 | 1.0 | 4.0 | 0.00 | 0.00 | 0.00 | 18 | 1017.4 |
| 20260506091003 | 80 | 0 | 0.0 | 6.0 | 0.00 | 0.00 | 0.00 | 20 | 1017.4 |
| 20260506090503 | 79 | 153 | 1.0 | 7.0 | 0.00 | 0.00 | 0.00 | 19 | 1017.4 |
| 20260506090003 | 80 | 178 | 1.0 | 7.0 | 0.00 | 0.00 | 0.00 | 19 | 1017.4 |
| 20260506085504 | 80 | 246 | 2.0 | 5.0 | 0.00 | 0.00 | 0.00 | 22 | 1017.3 |
| 20260506085003 | 79 | 183 | 2.0 | 5.0 | 0.00 | 0.00 | 0.00 | 26 | 1017.4 |
| 20260506084503 | 79 | 178 | 2.0 | 5.0 | 0.00 | 0.00 | 0.00 | 27 | 1017.4 |
| 20260506084004 | 78 | 187 | 2.0 | 5.0 | 0.00 | 0.00 | 0.00 | 27 | 1017.3 |
| 20260506083503 | 78 | 148 | 3.0 | 7.0 | 0.00 | 0.00 | 0.00 | 31 | 1017.3 |
| 20260506083003 | 78 | 131 | 2.0 | 7.0 | 0.00 | 0.00 | 0.00 | 32 | 1017.2 |
| 20260506082503 | 78 | 176 | 2.0 | 7.0 | 0.00 | 0.00 | 0.00 | 33 | 1017.3 |
| 20260506082004 | 77 | 246 | 1.0 | 5.0 | 0.00 | 0.00 | 0.00 | 34 | 1017.2 |
| 20260506081503 | 76 | 213 | 2.0 | 5.0 | 0.00 | 0.00 | 0.00 | 34 | 1017.2 |
| 20260506081003 | 76 | 207 | 2.0 | 5.0 | 0.00 | 0.00 | 0.00 | 34 | 1017.3 |
| 20260506080503 | 76 | 240 | 2.0 | 5.0 | 0.00 | 0.00 | 0.00 | 35 | 1017.3 |
| 20260506073504 | 74 | 243 | 1.0 | 5.0 | 0.00 | 0.00 | 0.00 | 37 | 1017.3 |
| 20260506073003 | 74 | 229 | 1.0 | 5.0 | 0.00 | 0.00 | 0.00 | 38 | 1017.1 |
| 20260506072504 | 74 | 0 | 0.0 | 4.0 | 0.00 | 0.00 | 0.00 | 38 | 1017.2 |
| 20260506072004 | 74 | 1 | 2.0 | 4.0 | 0.00 | 0.00 | 0.00 | 39 | 1017.2 |
| 20260506071503 | 74 | 0 | 0.0 | 4.0 | 0.00 | 0.00 | 0.00 | 39 | 1017.2 |
| 20260506071003 | 74 | 344 | 2.0 | 4.0 | 0.00 | 0.00 | 0.00 | 39 | 1017.2 |
| 20260506070504 | 74 | 311 | 2.0 | 4.0 | 0.00 | 0.00 | 0.00 | 40 | 1017.2 |